Location: Sungai Bunut
(2.6333°N, 113.7333°E)
Time: 16:35:26
(UTC+00:00)

Altair - Pass Details

Date: 10 December 2023
Orbit: 1501 x 1682 km, 47.2° (Epoch: 24 February)

Event Time Altitude Azimuth Distance (km) Brightness Sun altitude
Rises 22:34:27 0° 265° (W) 4,917 9.6 2.8°
Reaches altitude 10° 22:40:00 10° 289° (WNW) 3,903 9.0 4.0°
Maximum altitude 22:44:28 14° 317° (NW) 3,583 8.9 5.1°
Drops below altitude 10° 22:48:54 10° 344° (NNW) 3,844 9.2 6.1°
Sets 22:54:23 0° 9° (N) 4,787 9.9 7.3°
